Location: Hamburg
(53.5554°N, 9.9941°E)
Time: 03:19:02
(UTC+02:00)

ISS - Pass Details

Date: 18 May 2021
Orbit: 417 x 422 km, 51.6° (Epoch: 15 June)

Event Time Altitude Azimuth Distance (km) Brightness Sun altitude
Rises 01:16:18 0° 273° (W) 2,371 0.1 -16.9°
Reaches altitude 10° 01:18:25 10° 269° (W) 1,506 -1.0 -16.9°
Maximum altitude 01:21:44 54° 192° (SSW) 518 -3.7 -16.9°
Enters shadow 01:22:34 40° 141° (SE) 631 -3.3 -16.9°
